ESEO (43792 NORAD) Tracking and Keplerian Element Data

This shows tracking and keplerian element data for the satellite.

Feedback or suggestion? Click here.




ElementValue
Catalog43792
NameESEO
Epoch Orbit3241
Epoch Day191.27843615
Epoch Year2019
RAAN263.0967
Inclination97.7429
Eccentricity0.0011805
Argument of Perigee256.3366
Mean Anonmoly103.654
Mean Motion14.95510063
Decay Rate4.95E-06
L11 43792U 18099AL 19191.27843615 .00000495 00000-0 49854-4 0 9991
L22 43792 97.7429 263.0967 0011805 256.3366 103.6540 14.95510063 32417

Live tracking and technical data element details for ESEO (NORAD 43792). ESEO can be tracked NOW for your location showing map with azimuth and elevation plus other details from your city location.

Track the satellite on the map from your city or location and see movement details for azimuth, elevation, latitude, longitude, range, height, and movement on the map or in text.







IsCatalogInMostPopularTable: catalog: 43792, numindb: 87
Update: records affected: 1



GetName: 43792 ESEO

Hit Count: updated at: Tue, 16 Jul 2019 20:23:52 GMT